Location: Misciano
(43.5000°N, 11.9500°E)
Time: 08:21:45
(UTC+00:00)

Cosmos 468 Rocket - Pass Details

Date: 13 August 2020
Orbit: 744 x 779 km, 74.0° (Epoch: 26 September)

Event Time Altitude Azimuth Distance (km) Brightness Sun altitude
Rises 20:05:45 0° 341° (NNW) 3,271 8.3 -17.6°
Reaches altitude 10° 20:08:10 10° 344° (NNW) 2,336 7.4 -17.9°
Maximum altitude 20:13:28 67° 68° (ENE) 838 4.0 -18.6°
Enters shadow 20:15:34 36° 139° (SE) 1,207 4.5 -18.9°
